Regional Weather Roundup
Issued by NWS

Home | Current Version | Previous Version | Graphics & Text | Print | Product List | Glossary On
Versions: 1 2 3 4 5 6 7 8 9 10 11 12 13 14 15 16 17 18 19 20 21 22 23 24 25 26 27 28 29 30 31 32 33 34 35 36 37 38 39 40 41 42 43 44 45 46 47 48 49 50
000
ASUS45 KTFX 222104
RWRMT
MONTANA HOURLY WEATHER ROUNDUP
NATIONAL WEATHER SERVICE GREAT FALLS MT
304 PM MDT WED OCT 22 2014

NOTE: "FAIR" INDICATES FEW OR NO CLOUDS BELOW 12000 FEET WITH NO
SIGNIFICANT WEATHER AND/OR OBSTRUCTIONS TO VISIBILITY.

* THESE STATIONS ARE NOT UNDER NWS QUALITY CONTROL. THEY DO NOT
   REPORT WEATHER SUCH AS PRECIPITATION OR FOG.

MTZ001>007-043-222200-
WEST OF THE DIVIDE
CITY           SKY/WX    TMP DP  RH WIND       PRES   REMARKS
KALISPELL      PTCLDY    57  37  47 S17       29.91F
MISSOULA       SUNNY     59  36  42 S14       29.96F
BUTTE          SUNNY     52  28  40 SW12G17   30.05F
MULLAN PASS    CLOUDY    43  34  71 VRB7G17   29.95F
* ESSEX        N/A       54  32  43 SE5G12     N/A
* LINCOLN      N/A       54  31  42 SW8G19     N/A
* POLSON       N/A       57  38  49 S3G10      N/A
* RONAN APT    SUNNY     61  36  39 SE10G17    N/A
* SEELEY LAKE  N/A       55  35  47 SE5G10     N/A
* THOMP F APT  PTSUNNY   45  31  58 S9G17      N/A
$$

MTZ008-052>055-222200-
SOUTHWEST MONTANA
CITY           SKY/WX    TMP DP  RH WIND       PRES   REMARKS
BOZEMAN        SUNNY     55  30  39 CALM      30.02F
DILLON         SUNNY     55  30  39 SW12G22   30.05F
W YELLOWSTONE  CLOUDY    39  32  76 SW8       30.18F WCI  33
* THREE FORKS  SUNNY     57  54  90 W11G23     N/A
* BOULDER HILL N/A       50  26  39 SW17G24    N/A
* MONIDA PASS  N/A       42  29  60 SE16G24    N/A
* RAYNOLDS PAS N/A       41  27  58 S11        N/A
* WHITEHALL    N/A       57  32  39 SW14G25    N/A
* WISE RIVER   N/A       51  32  48 W13G20     N/A
$$

MTZ009>010-012-014-046-048-049-054-222200-
EAST SLOPES AND CENTRAL MONTANA
CITY           SKY/WX    TMP DP  RH WIND       PRES   REMARKS
CUT BANK       PTCLDY    57  30  36 W33G45    29.83F
GREAT FALLS    SUNNY     57  32  39 SW29G38   29.88S
HELENA         SUNNY     61  30  31 W14       29.98F
MALMSTROM AFB  SUNNY     59  30  33 SW32G39   29.90F
* CONRAD       PTCLDY    63  34  34 SW5        N/A
* DEARBORN     N/A       58  32  37 S17G29     N/A
* EAST GLACIER N/A       49  30  48 W26G35     N/A
* MONARCH      N/A       51  19  28 SW14G24    N/A
* PENDROY      N/A       61  24  24 S4         N/A
* ROGERS PASS  N/A       49  29  46 E17G29     N/A
* SAINT MARY   N/A       50  30  46 S11G31     N/A
* SWEET GRASS  N/A       58  31  36 SW20G29    N/A
$$

MTZ011-013-016-021-035-040-045-047-050-051-222200-
NORTH CENTRAL MONTANA
CITY           SKY/WX    TMP DP  RH WIND       PRES   REMARKS
HAVRE          SUNNY     61  36  39 SW17      29.83F
LEWISTOWN      SUNNY     57  28  33 W13       29.92F
* CHESTER      N/A       59  33  38 SW8G15     N/A
* DENTON       N/A       62  29  29 SW16       N/A
* GEYSER       N/A       59  26  28 W12G21     N/A
* JUDITH GAP   N/A       55  30  39 SW23G29    N/A
* LOMA         N/A       60  33  36 SW17G27    N/A
$$

MTZ017>020-022>027-061-062-222200-
NORTHEAST MONTANA
CITY           SKY/WX    TMP DP  RH WIND       PRES   REMARKS
GLASGOW        SUNNY     63  32  31 W17       29.84F
GLENDIVE       SUNNY     63  34  34 W22G28    29.89S
JORDAN         SUNNY     63  30  29 W14G22    29.88F
SIDNEY         SUNNY     64  37  37 W24G29    29.85R
WOLF POINT     SUNNY     64  36  35 W21G29    29.84S
* BEAVER HILL  N/A       61  31  32 W21G32     N/A
* CIRCLE       N/A       61  38  43 W16G21     N/A
* LINDSAY DVD  N/A       60  31  33 W20G27     N/A
* NAVAJO       N/A       58  41  53 NW22G31    N/A
$$

MTZ028>042-056>058-222200-
SOUTHCENTRAL AND SOUTHEAST MONTANA
CITY           SKY/WX    TMP DP  RH WIND       PRES   REMARKS
BAKER          SUNNY     63  30  29 NW20G31   29.92S
BILLINGS       SUNNY     64  21  19 SW10G22   29.94F
LIVINGSTON     SUNNY     61  25  25 SW26G36   29.98F
MILES CITY     SUNNY     64  28  26 W17G28    29.91F
* LAUREL APT   SUNNY     64  23  21 S6         N/A
* ROUNDUP APT  SUNNY     63  25  24 W17G29     N/A
* ALZADA       N/A       61  27  27 W10G17     N/A
* HYSHAM       N/A       60  28  30 W6G17      N/A
* LAME DEER    N/A       57  25  29 W15G24     N/A
* REED POINT   N/A       63  27  26 W19G25     N/A
* ROSCOE HILL  N/A       60  15  17 W2G9       N/A
$$

REGIONAL REPORTS...DAKOTAS
CITY           SKY/WX    TMP DP  RH WIND       PRES   REMARKS
WILLISTON      SUNNY     63  41  45 W20       29.80F
DICKINSON      SUNNY     63  36  37 W23G31    29.85S
BEACH          N/A       61  32  34 W25G33    29.89S
CROSBY         CLOUDY    55  46  72 W16G23    29.78R
TIOGA          CLOUDY    55  45  69 W16G25    29.83R
BISMARCK       PTSUNNY   68  39  35 W15       29.84S
GRAND FORKS    CLOUDY    63  48  58 SW18G23   29.80R
FARGO          CLOUDY    66  50  56 SW17      29.84R
BUFFALO SD     SUNNY     63  27  26 W23G32    29.89R
RAPID CITY     SUNNY     64  28  26 CALM      29.99S
$$

REGIONAL REPORTS...WYOMING/IDAHO/WASHINGTON
CITY           SKY/WX    TMP DP  RH WIND       PRES   REMARKS
GILLETTE       SUNNY     61  25  25 W10       30.00F
SHERIDAN       SUNNY     64  25  23 CALM      29.97F
CODY           SUNNY     57  23  27 W14G28    30.02F
YELLOWSTONE LA PTCLDY    41  23  49 W8        30.21S
SALMON         PTCLDY   N/A N/A N/A N/A        N/A
MULLAN PASS    CLOUDY    43  34  71 VRB7G17   29.95S
SAND POINT     CLOUDY    54  41  62 CALM      29.88F
SPOKANE        LGT RAIN  61  39  44 S15G24    29.85F

$$




USA.gov is the U.S. government's official web portal to all federal, state and local government web resources and services.